Flag for Germany Weather past 2 weeks in Warendorf, North Rhine-Westphalia, Germany

Now
63 °F

Drizzle. Broken clouds.


Feels Like: 63 °F
Forecast: 51 / 66 °F
Wind: 10 mph from Northwest

Location: Muenster / Osnabrueck

Current Time: Sep 1, 2015 at 9:05:51 AM

Latest Report: Sep 1, 2015 at 8:20 AM


Visibility: N/A

Pressure: 29.80 "Hg

Humidity: 88%

Dew point: 59 °F

Location of WarendorfLocation

Historic Weather in Warendorf — Graph

°F

Warendorf temperature yesterday

Maximum temperature yesterday: 90 °F (at 5:20 PM)
Minimum temperature yesterday: 66 °F (at 2:50 AM)
Average temperature yesterday: 75 °F

Past Weeks' High & Low Weather Summary

 TemperatureHumidityPressure
High90 °F (Aug 31, 5:20 PM)100% (Aug 17, 7:20 AM)30.27 "Hg (Aug 17, 7:20 AM)
Low50 °F (Aug 19, 6:20 AM)34% (Aug 23, 2:20 PM)29.53 "Hg (Aug 24, 5:20 PM)
Average65 °F77%29.96 "Hg
* Reported Aug 17 7:20 AM — Sep 1 7:50 AM, Warendorf, Weather by CustomWeather, © 2015

Note: Actual official high and low records may vary slightly from our data, if they occured in-between our weather recording intervals... More about our weather records

Advertising

Warendorf weather history for previous 24 hours

 ConditionsComfort  
Time TempWeatherWind HumidityBarometerVisibility
7:50 AM
Tue, Sep 1
63 °FBroken clouds.10 mph88%29.80 "HgN/A
7:20 AM64 °FPartly cloudy.12 mph83%29.80 "HgN/A
6:50 AM64 °FPartly cloudy.9 mph88%29.80 "HgN/A
5:20 AM66 °FPassing clouds.10 mph83%29.77 "HgN/A
4:50 AM66 °FPassing clouds.13 mph83%29.77 "HgN/A
4:20 AM66 °FPassing clouds.10 mph83%29.77 "HgN/A
3:50 AM68 °FPartly cloudy.15 mph78%29.77 "HgN/A
3:20 AM68 °FPassing clouds.9 mph83%29.77 "HgN/A
2:50 AM68 °FPassing clouds.12 mph83%29.77 "HgN/A
2:20 AM68 °FMild.12 mph88%29.77 "HgN/A
1:50 AM68 °FPartly cloudy.8 mph88%29.77 "HgN/A
1:20 AM70 °FPartly cloudy.10 mph83%29.77 "HgN/A
12:50 AM70 °FPassing clouds.13 mph83%29.80 "HgN/A
12:20 AM70 °FPartly cloudy.9 mph83%29.77 "HgN/A
11:20 PM
Mon, Aug 31
72 °FPassing clouds.7 mph78%29.77 "HgN/A
10:50 PM72 °FPassing clouds.9 mph78%29.77 "HgN/A
10:20 PM72 °FPassing clouds.8 mph78%29.77 "HgN/A
9:50 PM73 °FClear.15 mph74%29.77 "Hg10 mi
9:20 PM75 °FPassing clouds.7 mph74%29.77 "HgN/A
8:50 PM77 °FSunny.12 mph65%29.77 "Hg10 mi
8:20 PM79 °FSunny.9 mph58%29.74 "Hg10 mi
7:50 PM81 °FSunny.15 mph51%29.74 "Hg10 mi
7:20 PM84 °FSunny.6 mph43%29.71 "Hg10 mi
6:50 PM84 °FPassing clouds.6 mph40%29.74 "HgN/A
6:20 PM86 °FSunny.8 mph38%29.74 "Hg10 mi
5:50 PM86 °FPassing clouds.9 mph40%29.74 "HgN/A
5:20 PM90 °FPassing clouds.10 mph38%29.74 "HgN/A
4:50 PM88 °FPassing clouds.9 mph40%29.74 "HgN/A
4:20 PM88 °FPassing clouds.10 mph38%29.74 "HgN/A
3:50 PM88 °FPassing clouds.9 mph43%29.74 "HgN/A
3:20 PM88 °FScattered clouds.9 mph46%29.77 "HgN/A
2:50 PM86 °FPassing clouds.7 mph52%29.77 "HgN/A
2:20 PM86 °FPassing clouds.3 mph62%29.80 "HgN/A
1:50 PM84 °FScattered clouds.5 mph66%29.80 "HgN/A
1:20 PM82 °FPartly sunny.3 mph70%29.80 "HgN/A
12:50 PM82 °FPartly sunny.6 mph66%29.83 "HgN/A
12:20 PM81 °FSunny.7 mph70%29.83 "Hg10 mi
11:50 AM79 °FPartly sunny.7 mph70%29.83 "HgN/A
11:20 AM79 °FPartly sunny.6 mph70%29.86 "HgN/A
10:50 AM77 °FPartly sunny.5 mph69%29.86 "HgN/A
10:20 AM73 °FScattered clouds.7 mph83%29.89 "HgN/A
9:50 AM72 °FPassing clouds.9 mph83%29.89 "HgN/A
9:20 AM70 °FScattered clouds.5 mph88%29.89 "HgN/A
Weather by CustomWeather, © 2015

See weather overviewHow to use our weather pages